This is the latest recevied weather packets stored in our database for station/object W5MAI. If no packets are shown the sender has not sent any weather packets the latest 10 day(s).
| Time | Temp. | Humidity | Pressure | Rain* | Wind** | Luminosity | Snow |
|---|---|---|---|---|---|---|---|
| 1778130806 | 16.67° C | 84% | 1016.1 hPa | 0 mm | - | 0 W/m² | - |
| 1778130207 | 16.67° C | 84% | 1016.3 hPa | 0 mm | - | 0 W/m² | - |
| 1778127826 | 17.22° C | 83% | 1016.4 hPa | 0 mm | - | 0 W/m² | - |
| 1778127246 | 17.22° C | 83% | 1016.3 hPa | 0 mm | - | 0 W/m² | - |
| 1778126615 | 17.22° C | 83% | 1016 hPa | 0 mm | - | 0 W/m² | - |
| 1778126040 | 17.22° C | 83% | 1015.8 hPa | 0 mm | - | 0 W/m² | - |
| 1778125405 | 17.22° C | 83% | 1015.9 hPa | 0 mm | - | 0 W/m² | - |
| 1778122415 | 17.22° C | 84% | 1015.9 hPa | 0 mm | - | 0 W/m² | - |
| 1778121838 | 17.22° C | 84% | 1015.6 hPa | 0 mm | - | 0 W/m² | - |
| 1778121206 | 17.22° C | 84% | 1015.5 hPa | 0 mm | - | 0 W/m² | - |
| 1778120642 | 17.22° C | 84% | 1015.5 hPa | 0 mm | - | 0 W/m² | - |
| 1778120062 | 17.22° C | 84% | 1015.3 hPa | 0 mm | - | 0 W/m² | - |
| 1778119418 | 17.22° C | 83% | 1014.9 hPa | 0 mm | - | 0 W/m² | - |
| 1778118817 | 17.22° C | 83% | 1015 hPa | 0 mm | - | 0 W/m² | - |
| 1778118232 | 17.22° C | 82% | 1015 hPa | 0 mm | - | 0 W/m² | - |
| 1778117660 | 17.22° C | 83% | 1014.8 hPa | 0 mm | - | 0 W/m² | - |
| 1778115229 | 17.78° C | 81% | 1013.9 hPa | 0 mm | - | 16 W/m² | - |
| 1778114651 | 18.33° C | 81% | 1014.2 hPa | 0 mm | - | 30 W/m² | - |
| 1778114023 | 18.33° C | 80% | 1014.2 hPa | 0 mm | - | 33 W/m² | - |
| 1778113432 | 18.33° C | 80% | 1013.6 hPa | 0 mm | - | 42 W/m² | - |
| 1778112802 | 18.33° C | 80% | 1013.7 hPa | 0 mm | - | 79 W/m² | - |
| 1778112238 | 18.89° C | 79% | 1013.7 hPa | 0 mm | - | 77 W/m² | - |
| 1778111658 | 19.44° C | 79% | 1013.7 hPa | 0 mm | - | 123 W/m² | - |
| 1778111020 | 19.44° C | 79% | 1013.5 hPa | 0 mm | - | 100 W/m² | - |
| 1778110458 | 19.44° C | 78% | 1013 hPa | 0 mm | - | 155 W/m² | - |
* Rain latest hour (hover to see other rain measurements)
** Current wind speed in m/s (hover to see current wind gust speed)